• In Belarus
  • List of Countries
  • For 7 days
  • Water Temperature
  • Satellite Maps
  • Weather Map
  • Weather Widgets
  • user-avatar
    Login

    Hourly Weather Pamporovo

    Today, 21 January, Sunday

    Time Temperature Precipitation Wind Pressure Humidity
    00:00 -3°C° 0 mm 1 mps 619 mmHg 87%
    01:00 -3°C° 0 mm 1 mps 619 mmHg 87%
    02:00 -4°C° 0 mm 1 mps 619 mmHg 86%
    03:00 -4°C° 0 mm 1 mps 618 mmHg 86%
    04:00 -4°C° 0 mm 1 mps 618 mmHg 85%
    05:00 -6°C° 0 mm 1 mps 618 mmHg 84%
    06:00 -4°C° 0 mm 1 mps 618 mmHg 83%
    07:00 -4°C° 0 mm 1 mps 618 mmHg 83%
    08:00 -4°C° 0 mm 1 mps 618 mmHg 82%
    09:00 -3°C° 0 mm 1 mps 618 mmHg 80%
    10:00 -1°C° 0 mm 1 mps 618 mmHg 77%
    11:00 -2°C° 0 mm 2 mps 618 mmHg 75%
    12:00 -2°C° 0.1 mm 2 mps 618 mmHg 78%
    13:00 -2°C° 0.1 mm 2 mps 617 mmHg 81%
    14:00 0°C° 0.1 mm 1 mps 617 mmHg 84%
    15:00 -1°C° 0.1 mm 1 mps 616 mmHg 87%
    16:00 -1°C° 0.1 mm 1 mps 616 mmHg 90%
    17:00 -1°C° 0.1 mm 1 mps 615 mmHg 93%
    18:00 -1°C° 0.2 mm 1 mps 615 mmHg 94%
    19:00 -2°C° 0.2 mm 1 mps 614 mmHg 95%
    20:00 -2°C° 0.2 mm 1 mps 614 mmHg 96%
    21:00 -2°C° 0.5 mm 1 mps 613 mmHg 96%
    22:00 -2°C° 0.5 mm 1 mps 613 mmHg 96%
    23:00 -2°C° 0.5 mm 1 mps 613 mmHg 97%

    Tomorrow, 22 January, Monday

    Time Temperature Precipitation Wind Pressure Humidity
    00:00 -2°C° 0.3 mm 1 mps 613 mmHg 97%
    01:00 -2°C° 0.3 mm 1 mps 612 mmHg 97%
    02:00 -2°C° 0.3 mm 1 mps 612 mmHg 97%
    03:00 -4°C° 1 mm 2 mps 612 mmHg 94%
    04:00 -5°C° 1 mm 3 mps 612 mmHg 92%
    05:00 -7°C° 1 mm 4 mps 612 mmHg 89%
    06:00 -7°C° 0.3 mm 4 mps 612 mmHg 86%
    07:00 -8°C° 0.3 mm 4 mps 613 mmHg 83%
    08:00 -9°C° 0.3 mm 4 mps 613 mmHg 80%
    09:00 -8°C° 0 mm 4 mps 614 mmHg 76%
    10:00 -8°C° 0 mm 5 mps 614 mmHg 73%
    11:00 -7°C° 0 mm 5 mps 615 mmHg 69%
    12:00 -7°C° 0 mm 5 mps 615 mmHg 68%
    13:00 -6°C° 0 mm 5 mps 616 mmHg 67%
    14:00 -5°C° 0 mm 4 mps 616 mmHg 66%
    15:00 -7°C° 0 mm 4 mps 616 mmHg 68%
    16:00 -7°C° 0 mm 4 mps 616 mmHg 70%
    17:00 -7°C° 0 mm 3 mps 616 mmHg 73%
    18:00 -8°C° 0 mm 3 mps 617 mmHg 75%
    19:00 -9°C° 0 mm 3 mps 617 mmHg 78%
    20:00 -10°C° 0 mm 3 mps 617 mmHg 80%
    21:00 -10°C° 0 mm 3 mps 618 mmHg 79%
    22:00 -12°C° 0 mm 3 mps 618 mmHg 78%
    23:00 -12°C° 0 mm 3 mps 619 mmHg 78%

    Day after tomorrow, 23 January, Tuesday

    Time Temperature Precipitation Wind Pressure Humidity
    00:00 -10°C° 0 mm 2 mps 619 mmHg 77%
    01:00 -10°C° 0 mm 2 mps 619 mmHg 76%
    02:00 -10°C° 0 mm 2 mps 619 mmHg 75%
    03:00 -10°C° 0 mm 2 mps 620 mmHg 74%
    04:00 -10°C° 0 mm 2 mps 620 mmHg 74%
    05:00 -10°C° 0 mm 2 mps 620 mmHg 74%
    06:00 -10°C° 0 mm 2 mps 621 mmHg 74%
    07:00 -12°C° 0 mm 2 mps 621 mmHg 74%
    08:00 -12°C° 0 mm 2 mps 622 mmHg 74%
    09:00 -9°C° 0 mm 2 mps 623 mmHg 69%
    10:00 -8°C° 0 mm 2 mps 624 mmHg 64%
    11:00 -6°C° 0 mm 2 mps 625 mmHg 60%
    12:00 -6°C° 0 mm 2 mps 625 mmHg 60%
    13:00 -5°C° 0 mm 2 mps 625 mmHg 60%
    14:00 -5°C° 0 mm 2 mps 626 mmHg 60%
    15:00 -6°C° 0 mm 2 mps 626 mmHg 64%
    16:00 -7°C° 0 mm 2 mps 625 mmHg 69%
    17:00 -7°C° 0 mm 2 mps 625 mmHg 73%
    18:00 -8°C° 0 mm 2 mps 626 mmHg 76%
    19:00 -9°C° 0 mm 2 mps 626 mmHg 79%
    20:00 -10°C° 0 mm 2 mps 626 mmHg 83%
    21:00 -10°C° 0 mm 2 mps 627 mmHg 82%
    22:00 -12°C° 0 mm 2 mps 627 mmHg 82%
    23:00 -12°C° 0 mm 2 mps 627 mmHg 81%

    24 January, Wednesday

    Time Temperature Precipitation Wind Pressure Humidity
    00:00 -12°C° 0 mm 2 mps 627 mmHg 81%
    01:00 -12°C° 0 mm 2 mps 628 mmHg 81%
    02:00 -13°C° 0 mm 2 mps 628 mmHg 81%
    03:00 -13°C° 0 mm 2 mps 628 mmHg 81%
    04:00 -13°C° 0 mm 2 mps 628 mmHg 80%
    05:00 -13°C° 0 mm 2 mps 628 mmHg 79%
    06:00 -13°C° 0 mm 2 mps 628 mmHg 78%
    07:00 -13°C° 0 mm 2 mps 629 mmHg 77%
    08:00 -13°C° 0 mm 2 mps 629 mmHg 76%
    09:00 -12°C° 0 mm 2 mps 630 mmHg 66%
    10:00 -9°C° 0 mm 2 mps 631 mmHg 56%
    11:00 -8°C° 0 mm 2 mps 631 mmHg 46%
    12:00 -7°C° 0 mm 2 mps 631 mmHg 43%
    13:00 -7°C° 0 mm 2 mps 631 mmHg 40%
    14:00 -6°C° 0 mm 2 mps 631 mmHg 38%
    15:00 -7°C° 0 mm 2 mps 631 mmHg 43%
    16:00 -8°C° 0 mm 2 mps 630 mmHg 48%
    17:00 -8°C° 0 mm 1 mps 630 mmHg 52%
    18:00 -10°C° 0 mm 2 mps 630 mmHg 53%
    19:00 -12°C° 0 mm 2 mps 629 mmHg 53%
    20:00 -13°C° 0 mm 2 mps 629 mmHg 54%
    21:00 -13°C° 0 mm 2 mps 629 mmHg 53%
    22:00 -13°C° 0 mm 2 mps 629 mmHg 52%
    23:00 -14°C° 0 mm 2 mps 629 mmHg 51%

    25 January, Thursday

    Time Temperature Precipitation Wind Pressure Humidity
    00:00 -14°C° 0 mm 2 mps 628 mmHg 51%
    01:00 -14°C° 0 mm 2 mps 628 mmHg 50%
    02:00 -14°C° 0 mm 2 mps 628 mmHg 50%
    03:00 -14°C° 0 mm 2 mps 627 mmHg 49%
    04:00 -14°C° 0 mm 2 mps 627 mmHg 48%
    05:00 -14°C° 0 mm 2 mps 627 mmHg 47%
    06:00 -14°C° 0 mm 2 mps 627 mmHg 46%
    07:00 -14°C° 0 mm 2 mps 627 mmHg 45%
    08:00 -14°C° 0 mm 2 mps 626 mmHg 44%
    09:00 -10°C° 0 mm 1 mps 627 mmHg 39%
    10:00 -8°C° 0 mm 1 mps 628 mmHg 34%
    11:00 -6°C° 0 mm 1 mps 628 mmHg 29%
    12:00 -4°C° 0 mm 1 mps 628 mmHg 29%
    13:00 -3°C° 0 mm 1 mps 628 mmHg 29%
    14:00 -3°C° 0 mm 1 mps 627 mmHg 29%
    15:00 -4°C° 0 mm 1 mps 626 mmHg 35%
    16:00 -6°C° 0 mm 1 mps 626 mmHg 41%
    17:00 -7°C° 0 mm 1 mps 625 mmHg 47%
    18:00 -9°C° 0 mm 1 mps 625 mmHg 48%
    19:00 -10°C° 0 mm 1 mps 625 mmHg 49%
    20:00 -11°C° 0 mm 1 mps 625 mmHg 51%
    21:00 -11°C° 0 mm 1 mps 625 mmHg 50%
    22:00 -11°C° 0 mm 1 mps 625 mmHg 50%
    23:00 -11°C° 0 mm 1 mps 625 mmHg 50%

    26 January, Friday

    Time Temperature Precipitation Wind Pressure Humidity
    00:00 -12°C° 0 mm 1 mps 625 mmHg 51%
    01:00 -14°C° 0 mm 2 mps 625 mmHg 51%
    02:00 -14°C° 0 mm 2 mps 624 mmHg 52%
    03:00 -14°C° 0 mm 2 mps 625 mmHg 52%
    04:00 -14°C° 0 mm 2 mps 625 mmHg 52%
    05:00 -14°C° 0 mm 2 mps 625 mmHg 52%
    06:00 -14°C° 0 mm 2 mps 625 mmHg 53%
    07:00 -14°C° 0 mm 2 mps 625 mmHg 53%
    08:00 -14°C° 0 mm 2 mps 625 mmHg 53%
    09:00 -10°C° 0 mm 1 mps 626 mmHg 49%
    10:00 -8°C° 0 mm 1 mps 627 mmHg 45%
    11:00 -6°C° 0 mm 1 mps 628 mmHg 42%
    12:00 -4°C° 0 mm 1 mps 628 mmHg 42%
    13:00 -4°C° 0 mm 1 mps 628 mmHg 41%
    14:00 -3°C° 0 mm 1 mps 628 mmHg 41%
    15:00 -4°C° 0 mm 1 mps 628 mmHg 46%
    16:00 -6°C° 0 mm 1 mps 627 mmHg 52%
    17:00 -7°C° 0 mm 1 mps 627 mmHg 57%
    18:00 -7°C° 0 mm 1 mps 627 mmHg 59%
    19:00 -8°C° 0 mm 1 mps 627 mmHg 61%
    20:00 -9°C° 0 mm 1 mps 627 mmHg 63%
    21:00 -9°C° 0 mm 1 mps 627 mmHg 63%
    22:00 -9°C° 0 mm 1 mps 627 mmHg 62%
    23:00 -9°C° 0 mm 1 mps 627 mmHg 62%
    Show more